Location: Newark
(60.7180°N, 46.1836°E)
Time: 10:25:05
(UTC+00:00)

N. Korean satellite - Visible Passes

Search period start: 17 October 2019 00:00
Search period end: 27 October 2019 00:00
Orbit: 455 x 508 km, 97.2° (Epoch: 16 October)

Date Brightness Start Highest point End Pass type
(mag) Time Alt. Az. Time Alt. Az. Time Alt. Az.
17 Oct 7.7 02:52:41 10° NNE 02:56:11 51° E 02:59:42 10° S visible
17 Oct 10.2 15:13:22 10° WSW 15:15:09 13° W 15:16:56 10° NW visible
18 Oct 8.8 02:27:33 10° NNE 02:30:45 30° E 02:34:00 10° SSE visible
18 Oct 9.5 14:46:51 10° SW 14:49:34 21° W 14:52:19 10° NW visible
19 Oct 9.7 02:02:35 10° NE 02:05:15 19° E 02:07:57 10° SE visible
19 Oct 8.5 14:20:53 10° SSW 14:24:04 34° W 14:27:19 10° NNW visible
20 Oct 10.3 01:38:06 10° ENE 01:39:41 12° E 01:41:16 10° ESE visible
21 Oct 8.0 02:44:53 10° NNE 02:48:21 44° E 02:51:51 10° S visible
21 Oct 10.0 15:05:04 10° SW 15:07:13 16° W 15:09:25 10° NW visible
22 Oct 9.1 02:19:46 10° NE 02:22:54 27° E 02:26:03 10° SSE visible
22 Oct 9.2 14:38:45 10° SSW 14:41:40 25° W 14:44:37 10° NW visible
23 Oct 9.9 01:54:53 10° NE 01:57:22 17° E 01:59:51 10° SE visible
23 Oct 8.1 14:12:53 10° S 14:16:11 40° W 14:19:33 10° NNW visible
24 Oct 10.4 01:30:43 10° ENE 01:31:45 11° E 01:32:46 10° E visible
24 Oct 7.2 03:02:17 10° NNE 03:05:53 64° ESE 03:09:31 10° S visible
24 Oct 10.3 15:23:45 10° WSW 15:24:54 11° W 15:26:04 10° WNW visible
25 Oct 8.3 02:37:03 10° NNE 02:40:28 38° E 02:43:56 10° SSE visible
25 Oct 9.8 14:56:48 10° SW 14:59:17 18° W 15:01:47 10° NW visible
26 Oct 9.3 02:11:58 10° NE 02:14:59 24° E 02:18:01 10° SSE visible
26 Oct 8.9 14:30:39 10° SSW 14:33:43 29° W 14:36:52 10° NNW visible
